Weerstation Grootegast  Weerstation Grootegast


15 daagse weersverwachting Krems an der Donau (AT)

  • Overzicht
  • Per uur
  • 15 dagen
  • Extra
  • Vergelijk
  • Kaarten
  • Dagkaart
  • Meer »
  • Info
  • Statistieken
  • Directe link
    Temp 6h Neerslag Wind  
 04:57     21:01    Daglengte: 16:04 Vandaag
02:00
18°
 
3
08:00
20°
 
3
14:00
26°
 
4
20:00
23°
 
3
 04:57     21:01    Daglengte: 16:04 Morgen
02:00
18°
 
2
08:00
20°
 
2
14:00
27°
 
3
20:00
25°
 
2
 04:57     21:02    Daglengte: 16:05 Woensdag 19 Jun
02:00
19°
 
1
08:00
22°
 
1
14:00
29°
 
2
20:00
25°
2.5 mm
1
Locatie info
Region: Niederösterreich
Latitude: 48.4088°N
Longitude: 15.5965°E
195 masl
Postcode: 3500
Temp/Neerslag /Baro Onweer/Dauwpunt
    Temp Baro 1h Neerslag Dauwpunt Wind UV Bewolking  
 04:57     21:01    Daglengte: 16:04 Vandaag
02:00
18°
1020.8 hPa   13.4°
3
Windvlaag: -0.6 m/s
31%
03:00
17°
1020.7 hPa   13.4°
3
Windvlaag: -0.5 m/s
13%
04:00
17°
1020.4 hPa   13.3°
3
Windvlaag: -0.7 m/s
10%
05:00
17°
1020.4 hPa   13.2°
3
Windvlaag: -0.7 m/s
9%
06:00
17°
1020.6 hPa   13.1°
3
Windvlaag: -0.8 m/s
42%
07:00
18°
1020.8 hPa   13.0°
3
Windvlaag: -0.7 m/s
58%
08:00
20°
1021.1 hPa   13.2°
3
Windvlaag: -0.9 m/s
62%
09:00
21°
1021.0 hPa   13.4°
2
Windvlaag: -1.1 m/s
52%
10:00
22°
1020.8 hPa   13.1°
3
Windvlaag: -0.7 m/s
69%
11:00
23°
1020.9 hPa   13.4°
3
Windvlaag: -0.8 m/s
66%
12:00
24°
1020.4 hPa   13.5°
3
Windvlaag: -0.7 m/s
62%
13:00
25°
1019.8 hPa   13.5°
4
Windvlaag: -0.8 m/s
70%
14:00
26°
1019.2 hPa   13.8°
4
Windvlaag: -0.8 m/s
51%
15:00
26°
1018.5 hPa   13.9°
3
Windvlaag: -0.5 m/s
62%
16:00
26°
1018.0 hPa   13.7°
4
Windvlaag: -0.2 m/s
74%
17:00
26°
1017.6 hPa   13.4°
4
Windvlaag: -0.1 m/s
77%
18:00
26°
1017.5 hPa   13.2°
4
Windvlaag: 0.5 m/s
83%
19:00
25°
1017.6 hPa   12.6°
4
Windvlaag: 0.7 m/s
80%
20:00
23°
1017.9 hPa   12.5°
3
Windvlaag: 0.5 m/s
74%
21:00
22°
1018.0 hPa   12.3°
3
Windvlaag: 0.4 m/s
65%
22:00
21°
1018.5 hPa   12.5°
2
Windvlaag: -0.1 m/s
59%
23:00
20°
1018.6 hPa   12.4°
2
Windvlaag: -0.4 m/s
53%
 04:57     21:01    Daglengte: 16:04 Morgen
00:00
19°
1018.6 hPa   12.2°
2
Windvlaag: -0.5 m/s
53%
01:00
19°
1018.5 hPa   11.9°
2
Windvlaag: -0.5 m/s
53%
02:00
18°
1018.2 hPa   11.6°
2
Windvlaag: -0.5 m/s
62%
03:00
17°
1018.1 hPa   11.4°
2
Windvlaag: -0.7 m/s
60%
04:00
17°
1018.0 hPa   11.4°
2
Windvlaag: -0.9 m/s
58%
05:00
17°
1017.8 hPa   11.6°
2
Windvlaag: -1 m/s
62%
06:00
17°
1017.8 hPa   11.9°
2
Windvlaag: -1.1 m/s
68%
07:00
19°
1017.9 hPa   12.2°
2
Windvlaag: -1.3 m/s
58%
08:00
20°
1017.9 hPa   12.4°
2
Windvlaag: -1.3 m/s
65%
09:00
21°
1017.8 hPa   12.7°
2
Windvlaag: -1.2 m/s
75%
10:00
23°
1017.5 hPa   13.3°
2
Windvlaag: -0.8 m/s
62%
11:00
24°
1017.1 hPa   14.4°
2
Windvlaag: -0.5 m/s
58%
12:00
25°
1016.5 hPa   15.0°
2
Windvlaag: 0 m/s
57%
13:00
26°
1015.9 hPa
12%
15.1°
3
Windvlaag: 0.5 m/s
63%
14:00
27°
1015.2 hPa
12%
15.2°
3
Windvlaag: 0.4 m/s
66%
15:00
27°
1014.5 hPa
13%
15.1°
3
Windvlaag: 0.6 m/s
50%
16:00
28°
1014.0 hPa
13%
14.9°
3
Windvlaag: 0.5 m/s
55%
17:00
27°
1013.5 hPa
13%
14.7°
3
Windvlaag: 0.6 m/s
38%
18:00
27°
1013.6 hPa
13%
14.6°
3
Windvlaag: 0.4 m/s
38%
19:00
26°
1013.6 hPa
13%
14.7°
3
Windvlaag: 0.3 m/s
16%
20:00
25°
1013.7 hPa
13%
15.6°
2
Windvlaag: 0.4 m/s
24%
21:00
23°
1014.1 hPa
13%
15.9°
2
Windvlaag: 0.3 m/s
30%
22:00
22°
1014.3 hPa
13%
16.4°
1
Windvlaag: 0 m/s
35%
23:00
21°
1014.4 hPa
21%
16.8°
2
Windvlaag: 0 m/s
22%
 04:57     21:02    Daglengte: 16:05 Woensdag 19 Jun
00:00
21°
1014.4 hPa
21%
16.2°
1
Windvlaag: 0.1 m/s
25%
01:00
20°
1014.1 hPa
21%
16.2°
1
Windvlaag: -0.1 m/s
16%
02:00
19°
1013.7 hPa
21%
16.5°
1
Windvlaag: -0.2 m/s
2%
03:00
18°
1013.4 hPa
21%
16.7°
2
Windvlaag: -0.1 m/s
4%
04:00
18°
1013.5 hPa
21%
16.6°
2
Windvlaag: -0.2 m/s
2%
05:00
17°
1013.6 hPa
21%
16.7°
2
Windvlaag: -0.1 m/s
5%
06:00
18°
1013.6 hPa
21%
17.4°
2
Windvlaag: -0.1 m/s
4%
07:00
20°
1013.7 hPa
21%
18.0°
1
Windvlaag: -0 m/s
5%
08:00
22°
1013.8 hPa
21%
18.6°
1
Windvlaag: -1.3 m/s
11%
09:00
23°
1013.8 hPa
21%
18.3°
2
Windvlaag: 0.1 m/s
15%
10:00
24°
1013.4 hPa
21%
18.1°
2
Windvlaag: 0.2 m/s
21%
11:00
26°
1013.0 hPa
21%
17.7°
2
Windvlaag: 0.2 m/s
29%
12:00
27°
1012.4 hPa
24%
17.4°
3
Windvlaag: 0.4 m/s
28%
13:00
28°
1011.8 hPa
80%
17.3°
3
Windvlaag: 0.4 m/s
33%
14:00
29°
1011.4 hPa
42%
17.1°
2
Windvlaag: 0.4 m/s
43%
15:00
29°
1010.8 hPa
82%
17.1°
3
Windvlaag: 0.6 m/s
49%
16:00
29°
1010.7 hPa
85%
17.1°
2
Windvlaag: 0.2 m/s
73%
17:00
27°
1010.8 hPa 1.4 mm
90%
19.0°
3
Windvlaag: 0.1 m/s
87%
18:00
25°
1010.6 hPa 1.1 mm
84%
20.0°
1
Windvlaag: 0.1 m/s
84%
19:00
26°
1010.5 hPa
69%
19.7°
1
Windvlaag: 0.2 m/s
89%
20:00
25°
1010.5 hPa
21%
20.0°
1
Windvlaag: 0.2 m/s
78%
21:00
23°
1010.8 hPa
21%
19.2°
1
Windvlaag: 1.2 m/s
63%
22:00
22°
1011.1 hPa
21%
18.9°
1
Windvlaag: 1.3 m/s
59%
23:00
22°
1011.4 hPa
21%
18.8°
1
Windvlaag: 1.5 m/s
46%
 04:57     21:02    Daglengte: 16:05 Donderdag 20 Jun
00:00
21°
1011.4 hPa
21%
18.7°
1
Windvlaag: 1.5 m/s
38%
01:00
20°
1011.4 hPa
21%
18.7°
1
Windvlaag: 1.5 m/s
27%
Temp/Neerslag /Baro Onweer/Dauwpunt
    Temp Baro Neerslag Dauwpunt Wind Bewolking  
 04:57     21:01    Daglengte: 16:04 Vandaag
02:00
18°
1020.8 hPa   13.4°
3
31%
05:00
17°
1020.4 hPa   13.2°
3
9%
08:00
20°
1021.1 hPa   13.2°
3
62%
11:00
23°
1020.9 hPa   13.4°
3
66%
14:00
26°
1019.2 hPa   13.8°
4
51%
17:00
26°
1017.6 hPa   13.4°
4
77%
20:00
23°
1017.9 hPa   12.5°
3
74%
23:00
20°
1018.6 hPa   12.4°
2
53%
 04:57     21:01    Daglengte: 16:04 Morgen
02:00
18°
1018.2 hPa   11.6°
2
62%
05:00
17°
1017.8 hPa   11.6°
2
62%
08:00
20°
1017.9 hPa   12.4°
2
65%
11:00
24°
1017.1 hPa   14.4°
2
58%
14:00
27°
1015.2 hPa   15.2°
3
66%
17:00
27°
1013.5 hPa   14.7°
3
38%
20:00
25°
1013.7 hPa   15.6°
2
24%
23:00
21°
1014.4 hPa   16.8°
2
22%
 04:57     21:02    Daglengte: 16:05 Woensdag 19 Jun
02:00
19°
1013.7 hPa   16.5°
1
2%
05:00
17°
1013.6 hPa   16.7°
2
5%
08:00
22°
1013.8 hPa   18.6°
1
11%
11:00
26°
1013.0 hPa   17.7°
2
29%
14:00
29°
1011.4 hPa   17.1°
2
43%
17:00
27°
1010.8 hPa 1.4 mm 19.0°
3
87%
20:00
25°
1010.5 hPa 1.1 mm 20.0°
1
78%
23:00
22°
1011.4 hPa   18.8°
1
46%
 04:57     21:02    Daglengte: 16:05 Donderdag 20 Jun
02:00
20°
1011.4 hPa   18.5°
1
7%
05:00
21°
1012.7 hPa 6.3 mm 19.1°
1
38%
08:00
23°
1012.9 hPa 6.4 mm 19.5°
1
52%
11:00
26°
1012.3 hPa 6.6 mm 18.8°
1
46%
14:00
29°
1011.5 hPa 6.7 mm 16.5°
2
39%
17:00
28°
1011.9 hPa 6.7 mm 17.6°
2
46%
20:00
26°
1012.4 hPa 6.7 mm 18.6°
3
52%
23:00
23°
1013.6 hPa 6.7 mm 18.5°
2
63%
 04:57     21:02    Daglengte: 16:05 Vrijdag 21 Jun
02:00
20°
1014.8 hPa 6.8 mm 18.1°
1
74%
05:00
20°
1015.6 hPa 6.9 mm 18.4°
2
62%
08:00
21°
1016.4 hPa 7.1 mm 18.7°
3
50%
11:00
22°
1015.9 hPa 7.2 mm 18.7°
2
48%
14:00
24°
1015.3 hPa 7.4 mm 18.5°
1
45%
17:00
24°
1015.4 hPa 8.3 mm 18.7°
1
67%
20:00
23°
1015.6 hPa 10.3 mm 18.7°
2
89%
23:00
21°
1016.0 hPa 13.4 mm 18.6°
2
74%
 04:58     21:02    Daglengte: 16:04 Zaterdag 22 Jun
02:00
19°
1016.3 hPa 15.0 mm 18.6°
2
59%
05:00
19°
1016.7 hPa 15.8 mm 18.3°
2
73%
08:00
20°
1017.2 hPa 15.8 mm 18.1°
3
86%
11:00
23°
1015.9 hPa 15.8 mm 18.6°
3
75%
14:00
25°
1014.6 hPa 17.1 mm 18.8°
3
64%
17:00
23°
1014.7 hPa 19.2 mm 19.3°
2
78%
20:00
20°
1014.8 hPa 19.4 mm 18.8°
2
92%
23:00
19°
1015.1 hPa 19.5 mm 18.0°
1
92%
 04:58     21:03    Daglengte: 16:05 Zondag 23 Jun
02:00
18°
1015.2 hPa 19.5 mm 17.4°
1
92%
05:00
19°
1015.9 hPa 19.6 mm 17.3°
2
92%
08:00
19°
1016.7 hPa 19.7 mm 17.2°
2
92%
11:00
22°
1016.3 hPa 20.0 mm 18.2°
1
87%
14:00
26°
1016.0 hPa 20.0 mm 18.4°
1
83%
17:00
25°
1016.3 hPa 20.5 mm 19.0°
1
48%
20:00
23°
1016.8 hPa 21.1 mm 19.3°
1
13%
23:00
21°
1017.6 hPa   18.6°
1
14%
 04:58     21:03    Daglengte: 16:05 Maandag 24 Jun
02:00
18°
1018.3 hPa 42.2 mm 17.7°
1
16%
08:00
20°
1019.2 hPa 42.2 mm 18.8°
2
82%
14:00
27°
1017.9 hPa 42.2 mm 17.3°
3
80%
20:00
25°
1016.6 hPa 42.2 mm 18.9°
3
27%
 04:59     21:03    Daglengte: 16:04 Dinsdag 25 Jun
02:00
20°
1016.0 hPa 42.2 mm 17.6°
3
84%
08:00
23°
1014.8 hPa 42.2 mm 19.4°
3
0%
14:00
31°
1014.2 hPa 42.2 mm 20.7°
2
60%
20:00
29°
1013.1 hPa 42.2 mm 23.3°
1
89%
 04:59     21:03    Daglengte: 16:04 Woensdag 26 Jun
02:00
23°
1012.7 hPa 42.2 mm 19.6°
2
0%
08:00
25°
1012.2 hPa 42.2 mm 20.0°
2
0%
14:00
34°
1011.2 hPa 42.2 mm 21.8°
3
2%
20:00
23°
1015.9 hPa 1.1 mm 18.0°
1
43%
 05:00     21:03    Daglengte: 16:03 Donderdag 27 Jun
02:00
17°
1016.7 hPa 0.5 mm 15.2°
1
47%
08:00
19°
1016.2 hPa 0.9 mm 16.2°
1
47%
14:00
25°
1014.6 hPa 0.9 mm 16.5°
1
48%
20:00
22°
1013.7 hPa 2.3 mm 17.7°
1
44%
 05:00     21:03    Daglengte: 16:03 Vrijdag 28 Jun
02:00
16°
1014.7 hPa 1.2 mm 14.1°
2
43%
08:00
18°
1014.3 hPa 1.0 mm 15.4°
2
37%
14:00
25°
1013.0 hPa 1.0 mm 15.1°
1
32%
20:00
21°
1012.8 hPa 1.8 mm 16.6°
1
36%
 05:01     21:03    Daglengte: 16:02 Zaterdag 29 Jun
02:00
15°
1014.1 hPa 1.1 mm 13.4°
2
30%
08:00
18°
1014.5 hPa 0.7 mm 14.6°
2
33%
14:00
24°
1013.6 hPa 1.0 mm 13.9°
2
34%
20:00
21°
1013.9 hPa 1.1 mm 16.0°
2
35%
 05:01     21:02    Daglengte: 16:01 Zondag 30 Jun
02:00
15°
1015.8 hPa 1.1 mm 12.9°
2
46%
08:00
18°
1016.1 hPa 0.4 mm 14.1°
2
44%
14:00
23°
1015.2 hPa 1.8 mm 14.5°
2
45%
20:00
21°
1015.0 hPa 0.9 mm 16.0°
1
45%
 05:02     21:02    Daglengte: 16:00 Maandag 01 Jul
02:00
15°
1016.1 hPa 0.8 mm 13.1°
1
37%
08:00
18°
1016.0 hPa 0.5 mm 14.6°
1
30%
14:00
24°
1015.2 hPa 1.4 mm 14.3°
0
35%
20:00
21°
1015.2 hPa 0.7 mm 16.0°
1
33%
  CAPE Lifted Index Hail Supercell Tornado SRH 3km CL BTM PRES CL TOP PRES Swiss DWD icon SMHI TS
 04:57     21:01    Daglengte: 16:04 Vandaag
02:00 0 J/kg 0.9 K 0 % 0 % 0 % 0 m²/s² 0 0 2.01 1
03:00 0 J/kg 0.5 K 0 % 0 % 0 % 0 m²/s² 0 0 1.31 1
04:00 0 J/kg 1.4 K 0 % 0 % 0 % 0 m²/s² 0 0 2.72 0
05:00 0 J/kg 1.6 K 0 % 0 % 0 % 0 m²/s² 0 0 2.92 0
06:00 0 J/kg 1.2 K 0 % 0 % 0 % 0 m²/s² 0 0 2.67 0
07:00 0 J/kg 1.4 K 0 % 0 % 0 % 0 m²/s² 0 0 3.11 3
08:00 0 J/kg 1.7 K 0 % 0 % 0 % 0 m²/s² 0 0 3.53 1
09:00 0 J/kg 1.6 K 0 % 0 % 0 % 0 m²/s² 0 0 3.76 1
10:00 13 J/kg 1.6 K 0 % 0 % 0 % 0 m²/s² 0 0 4.21 2
11:00 14 J/kg 1.5 K 0 % 0 % 0 % 0 m²/s² 0 0 4.59 2
12:00 16 J/kg 1.3 K 0 % 0 % 0 % 0 m²/s² 0 0 4.66 3
13:00 27 J/kg 1.0 K 0 % 0 % 0 % 0 m²/s² 0 0 4.27 3
14:00 22 J/kg 0.7 K 0 % 0 % 0 % 0 m²/s² 0 0 3.55 2
15:00 4 J/kg 0.7 K 0 % 0 % 0 % 0 m²/s² 0 0 3.22 2
16:00 2 J/kg 0.8 K 0 % 0 % 0 % 0 m²/s² 0 0 3.56 3
17:00 4 J/kg 0.2 K 0 % 0 % 0 % 0 m²/s² 0 0 2.96 3
18:00 0 J/kg 0.9 K 0 % 0 % 0 % 0 m²/s² 0 0 3.84 3
19:00 0 J/kg 2.0 K 0 % 0 % 0 % 0 m²/s² 0 0 5.03 3
20:00 0 J/kg 2.0 K 0 % 0 % 0 % 0 m²/s² 0 0 5.36 3
21:00 0 J/kg 2.9 K 0 % 0 % 0 % 0 m²/s² 0 0 6.47 3
22:00 0 J/kg 3.8 K 0 % 0 % 0 % 0 m²/s² 0 0 7.37 3
23:00 0 J/kg 4.1 K 0 % 0 % 0 % 0 m²/s² 0 0 7.37 3
 04:57     21:01    Daglengte: 16:04 Morgen
00:00 0 J/kg 3.6 K 0 % 0 % 0 % 0 m²/s² 0 0 6.87 3
01:00 0 J/kg 2.6 K 0 % 0 % 0 % 0 m²/s² 0 0 5.87 3
02:00 0 J/kg 2.7 K 0 % 0 % 0 % 0 m²/s² 0 0 6.09 3
03:00 0 J/kg 2.2 K 0 % 0 % 0 % 0 m²/s² 0 0 5.38 3
04:00 0 J/kg 1.0 K 0 % 0 % 0 % 0 m²/s² 0 0 3.85 3
05:00 0 J/kg 1.0 K 0 % 0 % 0 % 0 m²/s² 0 0 2.92 3
06:00 0 J/kg 0.8 K 0 % 0 % 0 % 0 m²/s² 0 0 1.85 3
07:00 0 J/kg 0.2 K 0 % 0 % 0 % 0 m²/s² 0 0 1.07 1
08:00 0 J/kg 0.3 K 0 % 0 % 0 % 0 m²/s² 0 0 0.96 2
09:00 0 J/kg 0.6 K 0 % 0 % 0 % 0 m²/s² 0 0 1.08 3
10:00 0 J/kg 0.9 K 0 % 0 % 0 % 0 m²/s² 0 0 1.35 3
11:00 17 J/kg 0.1 K 0 % 0 % 0 % 0 m²/s² 0 0 0.19 3
12:00 280 J/kg -1.6 K 0 % 0 % 0 % 0 m²/s² 0 0 -1.48 3
13:00 746 J/kg -3.0 K 0 % 0 % 0 % 0 m²/s² 0 0 -2.7 3
14:00 973 J/kg -3.6 K 0 % 0 % 0 % 0 m²/s² 0 0 -2.64 3
15:00 1008 J/kg -3.3 K 0 % 0 % 0 % 0 m²/s² 0 0 -1.8 3
16:00 1236 J/kg -3.8 K 0 % 0 % 0 % 0 m²/s² 0 0 -2.3 3
17:00 1199 J/kg -3.4 K 0 % 0 % 0 % 0 m²/s² 0 0 -1.66 3
18:00 1316 J/kg -3.6 K 0 % 0 % 0 % 0 m²/s² 0 0 -1.86 3
19:00 1370 J/kg -4.1 K 0 % 0 % 0 % 0 m²/s² 0 0 -2.42 0
20:00 1207 J/kg -3.3 K 0 % 0 % 0 % 0 m²/s² 0 0 -1.29 2
21:00 1301 J/kg -4.4 K 0 % 0 % 0 % 0 m²/s² 0 0 -3.11 3
22:00 1004 J/kg -4.0 K 0 % 0 % 0 % 0 m²/s² 0 0 -2.98 3
23:00 803 J/kg -3.1 K 0 % 0 % 0 % 0 m²/s² 0 0 -2.08 1
 04:57     21:02    Daglengte: 16:05 Woensdag 19 Jun
00:00 956 J/kg -3.7 K 0 % 0 % 0 % 0 m²/s² 0 0 -2.53 0
01:00 702 J/kg -3.6 K 0 % 0 % 0 % 0 m²/s² 0 0 -2.73 0
02:00 453 J/kg -3.4 K 0 % 0 % 0 % 0 m²/s² 0 0 -2.44 0
03:00 240 J/kg -2.9 K 0 % 0 % 0 % 0 m²/s² 0 0 -1.61 0
04:00 239 J/kg -2.8 K 0 % 0 % 0 % 0 m²/s² 0 0 -1.78 0
05:00 195 J/kg -2.6 K 0 % 0 % 0 % 0 m²/s² 0 0 -1.88 0
06:00 170 J/kg -2.6 K 0 % 0 % 0 % 0 m²/s² 0 0 -1.88 1
07:00 278 J/kg -2.0 K 0 % 0 % 0 % 0 m²/s² 0 0 -1.52 1
08:00 689 J/kg -3.2 K 0 % 0 % 0 % 0 m²/s² 0 0 -2.99 3
09:00 1127 J/kg -4.0 K 0 % 0 % 0 % 0 m²/s² 0 0 -3.61 3
10:00 1502 J/kg -5.2 K 0 % 0 % 0 % 0 m²/s² 0 0 -4.42 2
11:00 1656 J/kg -5.2 K 0 % 0 % 0 % 0 m²/s² 0 0 -4.12 2
12:00 1732 J/kg -5.7 K 0 % 0 % 0 % 0 m²/s² 0 0 -4.59 0
13:00 1790 J/kg -6.1 K 0 % 0 % 0 % 0 m²/s² 0 0 -5.56 3
14:00 1793 J/kg -6.2 K 0 % 0 % 0 % 0 m²/s² 0 0 -5.33 3
15:00 1551 J/kg -5.5 K 0 % 0 % 0 % 0 m²/s² 0 0 -3.82 0
16:00 1094 J/kg -4.4 K 0 % 0 % 0 % 0 m²/s² 0 0 -2.12 3
17:00 1008 J/kg -4.3 K 0 % 0 % 0 % 0 m²/s² 0 0 -1.57 3
18:00 957 J/kg -3.9 K 0 % 0 % 0 % 0 m²/s² 0 0 -1.41 3
19:00 1077 J/kg -4.4 K 0 % 0 % 0 % 0 m²/s² 0 0 -1.52 3
20:00 1121 J/kg -4.5 K 0 % 0 % 0 % 0 m²/s² 0 0 -1.62 3
21:00 1124 J/kg -4.2 K 0 % 0 % 0 % 0 m²/s² 0 0 -1.32 3
22:00 1019 J/kg -4.2 K 0 % 0 % 0 % 0 m²/s² 0 0 -1.17 3
23:00 960 J/kg -4.9 K 0 % 0 % 0 % 0 m²/s² 0 0 -1.24 0
 04:57     21:02    Daglengte: 16:05 Donderdag 20 Jun
00:00 739 J/kg -4.9 K 0 % 0 % 0 % 0 m²/s² 0 0 -0.94 0
01:00 651 J/kg -5.0 K 0 % 0 % 0 % 0 m²/s² 0 0 -1.52 3
Temp Baro Wind Neerslag
  EWN Forecast EWN WRFDA DWD ICON FMI HIRLAM MET Norway GFS
 04:57     21:01    Daglengte: 16:04 Vandaag
02:00 17.6° 1020.8 hPa 2.8 m/s 0.0 mm 15.7° 1020.1 hPa 4.0 m/s 0.0 mm 16.2° 1021.7 hPa 1.5 m/s -2.0 mm 18.2° 1020.7 hPa 3.0 m/s 0.0 mm 17.8° 1020.6 hPa 2.8 m/s 0.0 mm 14.5° 1021.5 hPa 2.0 m/s
05:00 16.6° 1020.4 hPa 2.8 m/s 0.0 mm 14.9° 1018.8 hPa 4.8 m/s 0.0 mm 14.9° 1020.8 hPa 1.8 m/s 0.0 mm 18.2° 1020.5 hPa 3.1 m/s 0.0 mm 16.7° 1020.4 hPa 2.5 m/s 0.0 mm 13.6° 1021.2 hPa 2.1 m/s
08:00 19.5° 1021.1 hPa 2.5 m/s 0.0 mm 19.4° 1020.6 hPa 2.9 m/s 0.0 mm 19.5° 1021.3 hPa 2.0 m/s 0.0 mm 19.1° 1020.6 hPa 2.8 m/s 0.0 mm 20.5° 1021.1 hPa 2.6 m/s 0.0 mm 18.0° 1021.4 hPa 2.0 m/s
11:00 22.6° 1020.9 hPa 3.0 m/s 0.0 mm 22.9° 1020.7 hPa 4.6 m/s 0.0 mm 22.8° 1021.1 hPa 3.9 m/s 0.0 mm 22.7° 1020.5 hPa 2.5 m/s 0.0 mm 22.8° 1020.9 hPa 2.9 m/s 0.0 mm 22.0° 1020.7 hPa 2.2 m/s
14:00 25.5° 1019.2 hPa 3.6 m/s 0.0 mm 24.5° 1019.4 hPa 4.3 m/s 0.0 mm 25.5° 1019.4 hPa 3.8 m/s 0.0 mm 26.0° 1018.9 hPa 3.7 m/s 0.0 mm 25.9° 1018.8 hPa 3.4 m/s 0.0 mm 23.6° 1019.8 hPa 3.0 m/s
17:00 26.1° 1017.6 hPa 3.9 m/s 0.0 mm 24.8° 1018.5 hPa 4.5 m/s 0.0 mm 26.0° 1017.6 hPa 4.2 m/s 0.0 mm 26.6° 1017.2 hPa 4.1 m/s 0.0 mm 26.9° 1017.3 hPa 3.7 m/s 0.0 mm 23.5° 1018.8 hPa 3.9 m/s
20:00 23.3° 1017.9 hPa 2.9 m/s 0.0 mm 22.2° 1017.9 hPa 2.3 m/s 0.0 mm 22.4° 1018.1 hPa 2.9 m/s 0.0 mm 24.4° 1017.2 hPa 3.6 m/s 0.0 mm 24.0° 1017.9 hPa 3.2 m/s 0.0 mm 19.7° 1018.8 hPa 2.4 m/s
23:00 20.1° 1018.6 hPa 2.1 m/s 0.0 mm 16.6° 1018.7 hPa 3.5 m/s 0.0 mm 18.6° 1018.9 hPa 1.4 m/s 0.0 mm 20.4° 1018.5 hPa 1.9 m/s 0.0 mm 20.7° 1018.6 hPa 2.9 m/s 0.0 mm 15.9° 1019.3 hPa 1.6 m/s
 04:57     21:01    Daglengte: 16:04 Morgen
02:00 18.0° 1018.2 hPa 2.2 m/s 0.0 mm 16.1° 1017.8 hPa 4.2 m/s 0.0 mm 16.5° 1018.3 hPa 1.7 m/s 0.0 mm 18.4° 1017.9 hPa 2.3 m/s 0.0 mm 18.1° 1018.7 hPa 1.9 m/s 0.0 mm 14.3° 1019.1 hPa 1.6 m/s
05:00 16.7° 1017.8 hPa 2.0 m/s 0.0 mm 13.9° 1017.1 hPa 3.6 m/s 0.0 mm 15.4° 1017.7 hPa 1.6 m/s 0.0 mm 16.7° 1017.9 hPa 2.0 m/s 0.0 mm 16.8° 1018.4 hPa 1.7 m/s 0.0 mm 13.2° 1018.1 hPa 1.3 m/s
08:00 19.9° 1017.9 hPa 2.1 m/s 0.0 mm 18.7° 1017.4 hPa 2.3 m/s 0.0 mm 19.9° 1017.9 hPa 2.3 m/s 0.0 mm 20.2° 1017.4 hPa 2.2 m/s 0.0 mm 20.1° 1018.7 hPa 2.0 m/s 0.0 mm 17.8° 1018.0 hPa 1.8 m/s
11:00 24.1° 1017.1 hPa 2.1 m/s 0.0 mm 22.7° 1017.6 hPa 1.3 m/s 0.0 mm 23.8° 1016.9 hPa 2.4 m/s 0.0 mm 25.7° 1016.3 hPa 2.6 m/s 0.0 mm 24.4° 1017.7 hPa 2.0 m/s 0.0 mm 22.5° 1017.2 hPa 2.7 m/s
14:00 26.9° 1015.2 hPa 3.1 m/s 0.0 mm 23.6° 1015.8 hPa 3.0 m/s 0.5 mm 26.6° 1015.1 hPa 3.1 m/s 0.0 mm 28.3° 1014.5 hPa 3.2 m/s 0.0 mm 27.4° 1015.7 hPa 2.7 m/s 0.0 mm 25.4° 1015.0 hPa 3.6 m/s
17:00 27.3° 1013.5 hPa 3.2 m/s 0.0 mm 25.4° 1014.1 hPa 3.1 m/s 1.3 mm 26.4° 1013.3 hPa 4.6 m/s 0.0 mm 28.9° 1013.2 hPa 2.7 m/s 0.0 mm 27.5° 1014.2 hPa 3.0 m/s 0.0 mm 25.9° 1013.9 hPa 3.6 m/s
20:00 25.4° 1013.7 hPa 2.3 m/s 0.0 mm 24.0° 1012.4 hPa 1.3 m/s 1.8 mm 23.2° 1014.1 hPa 3.1 m/s 0.0 mm 26.9° 1013.2 hPa 2.2 m/s 0.0 mm 25.7° 1014.3 hPa 2.5 m/s 0.0 mm 22.6° 1013.6 hPa 2.7 m/s
23:00 20.9° 1014.4 hPa 1.6 m/s 0.0 mm 20.4° 1013.5 hPa 2.5 m/s 2.0 mm 18.7° 1014.5 hPa 1.3 m/s 0.0 mm 21.2° 1015.2 hPa 1.7 m/s 0.0 mm 18.6° 1014.9 hPa 1.5 m/s
 04:57     21:02    Daglengte: 16:05 Woensdag 19 Jun
02:00 19.3° 1013.7 hPa 1.4 m/s 0.0 mm 19.0° 1012.8 hPa 2.8 m/s 2.8 mm 16.7° 1013.8 hPa 1.3 m/s 0.0 mm 19.6° 1014.1 hPa 1.1 m/s 0.0 mm 17.4° 1014.4 hPa 0.8 m/s
05:00 17.5° 1013.6 hPa 1.6 m/s 0.0 mm 17.5° 1012.4 hPa 2.6 m/s 4.1 mm 15.6° 1013.8 hPa 1.0 m/s 0.0 mm 17.6° 1014.2 hPa 1.5 m/s 0.0 mm 16.6° 1013.9 hPa 0.5 m/s
08:00 21.6° 1013.8 hPa 1.2 m/s 0.0 mm 20.4° 1012.8 hPa 1.0 m/s 5.0 mm 20.2° 1014.0 hPa 0.9 m/s 0.0 mm 21.9° 1014.1 hPa 2.0 m/s 0.0 mm 20.3° 1014.1 hPa 0.3 m/s
11:00 25.7° 1013.0 hPa 2.2 m/s 0.0 mm 24.4° 1012.3 hPa 1.0 m/s 5.5 mm 24.8° 1013.1 hPa 1.7 m/s 0.0 mm 26.6° 1013.1 hPa 2.7 m/s 0.0 mm 24.4° 1013.0 hPa 1.3 m/s
14:00 28.8° 1011.4 hPa 2.4 m/s 0.0 mm 24.4° 1012.3 hPa 2.2 m/s 6.6 mm 29.0° 1011.0 hPa 1.5 m/s 0.0 mm 29.4° 1011.3 hPa 2.8 m/s 0.0 mm 27.2° 1011.9 hPa 1.9 m/s
17:00 26.6° 1010.8 hPa 3.3 m/s 1.4 mm 26.2° 1010.6 hPa 0.7 m/s 8.7 mm 29.3° 1009.7 hPa 1.7 m/s 0.1 mm 26.1° 1011.3 hPa 5.0 m/s 0.7 mm 26.4° 1011.4 hPa 1.2 m/s
20:00 24.5° 1010.5 hPa 1.1 m/s 1.1 mm 25.0° 1009.7 hPa 1.1 m/s 8.7 mm 26.1° 1009.6 hPa 1.4 m/s 0.1 mm 23.7° 1011.3 hPa 1.1 m/s 0.0 mm 20.0° 1011.5 hPa 1.9 m/s
23:00 21.5° 1011.4 hPa 1.2 m/s 0.0 mm 21.3° 1011.2 hPa 1.4 m/s 8.7 mm 20.8° 1010.8 hPa 0.8 m/s 0.0 mm 21.9° 1011.7 hPa 1.2 m/s 18.1° 1012.9 hPa 2.2 m/s
 04:57     21:02    Daglengte: 16:05 Donderdag 20 Jun
02:00 19.9° 1011.4 hPa 1.4 m/s 0.0 mm 20.3° 1010.2 hPa 1.8 m/s 8.7 mm 18.9° 1010.8 hPa 1.2 m/s 0.0 mm 20.0° 1012.1 hPa 1.4 m/s 17.3° 1012.1 hPa 1.1 m/s
05:00 21.5° 1012.7 hPa 0.9 m/s 6.3 mm 21.9° 1012.6 hPa 0.8 m/s 16.4° 1012.9 hPa 1.6 m/s 6.3 mm
08:00 22.7° 1012.9 hPa 0.6 m/s 6.4 mm 22.9° 1012.9 hPa 0.5 m/s 20.7° 1013.4 hPa 1.7 m/s 6.4 mm
11:00 26.1° 1012.3 hPa 1.1 m/s 6.6 mm 26.1° 1012.2 hPa 1.1 m/s 26.1° 1013.0 hPa 1.7 m/s 6.6 mm
14:00 29.4° 1011.5 hPa 1.5 m/s 6.7 mm 29.4° 1011.5 hPa 1.6 m/s 29.1° 1011.7 hPa 0.5 m/s 6.7 mm
17:00 27.7° 1011.9 hPa 2.2 m/s 6.7 mm 27.6° 1012.0 hPa 2.2 m/s 28.6° 1010.9 hPa 2.8 m/s 6.7 mm
20:00 25.7° 1012.4 hPa 2.7 m/s 6.7 mm 25.8° 1012.5 hPa 2.8 m/s 24.1° 1011.3 hPa 2.1 m/s 6.7 mm
23:00 22.8° 1013.6 hPa 2.0 m/s 6.7 mm 23.1° 1013.7 hPa 2.0 m/s 19.5° 1012.6 hPa 1.2 m/s 6.7 mm
 04:57     21:02    Daglengte: 16:05 Vrijdag 21 Jun
02:00 20.1° 1014.8 hPa 1.4 m/s 6.8 mm 20.3° 1014.9 hPa 1.3 m/s 18.0° 1013.2 hPa 2.4 m/s 6.8 mm
05:00 20.3° 1015.6 hPa 2.2 m/s 6.9 mm 20.6° 1015.8 hPa 2.1 m/s 17.8° 1013.8 hPa 3.8 m/s 6.9 mm
08:00 20.7° 1016.4 hPa 2.9 m/s 7.1 mm 20.8° 1016.6 hPa 2.9 m/s 19.4° 1014.5 hPa 2.9 m/s 7.1 mm
11:00 22.4° 1015.9 hPa 2.0 m/s 7.2 mm 22.5° 1016.0 hPa 1.9 m/s 21.4° 1014.3 hPa 2.6 m/s 7.2 mm
14:00 24.3° 1015.3 hPa 1.1 m/s 7.4 mm 24.1° 1015.5 hPa 1.0 m/s 26.4° 1012.7 hPa 1.7 m/s 7.4 mm
17:00 23.6° 1015.4 hPa 1.4 m/s 8.3 mm 23.4° 1015.8 hPa 1.4 m/s 26.2° 1011.4 hPa 1.2 m/s 8.3 mm
20:00 22.6° 1015.6 hPa 1.8 m/s 10.3 mm 22.6° 1016.0 hPa 1.8 m/s 22.6° 1011.0 hPa 1.3 m/s 10.3 mm
23:00 20.8° 1016.0 hPa 1.6 m/s 13.4 mm 21.0° 1016.4 hPa 1.6 m/s 19.0° 1012.5 hPa 1.4 m/s 13.4 mm
 04:58     21:02    Daglengte: 16:04 Zaterdag 22 Jun
02:00 19.2° 1016.3 hPa 1.5 m/s 15.0 mm 19.3° 1016.7 hPa 1.5 m/s 17.5° 1012.3 hPa 2.0 m/s 15.0 mm
05:00 19.3° 1016.7 hPa 2.2 m/s 15.8 mm 19.6° 1017.2 hPa 2.2 m/s 17.0° 1012.3 hPa 2.7 m/s 15.8 mm
08:00 19.8° 1017.2 hPa 2.9 m/s 15.8 mm 19.8° 1017.6 hPa 2.9 m/s 19.6° 1012.8 hPa 3.0 m/s 15.8 mm
11:00 22.7° 1015.9 hPa 2.9 m/s 15.8 mm 22.6° 1016.2 hPa 2.8 m/s 23.5° 1012.3 hPa 3.8 m/s 15.8 mm
14:00 25.4° 1014.6 hPa 2.8 m/s 17.1 mm 25.4° 1014.8 hPa 2.7 m/s 25.5° 1012.5 hPa 3.9 m/s 17.1 mm
17:00 22.6° 1014.7 hPa 2.3 m/s 19.2 mm 22.6° 1014.8 hPa 2.0 m/s 22.0° 1012.6 hPa 5.0 m/s 19.2 mm
20:00 19.7° 1014.8 hPa 1.6 m/s 19.4 mm 19.9° 1014.9 hPa 1.4 m/s 17.4° 1013.4 hPa 3.6 m/s 19.4 mm
23:00 19.0° 1015.1 hPa 1.4 m/s 19.5 mm 19.4° 1015.0 hPa 1.3 m/s 14.4° 1015.1 hPa 2.1 m/s 19.5 mm
 04:58     21:03    Daglengte: 16:05 Zondag 23 Jun
02:00 18.4° 1015.2 hPa 1.3 m/s 19.5 mm 18.9° 1015.2 hPa 1.2 m/s 13.0° 1015.2 hPa 2.2 m/s 19.5 mm
05:00 18.8° 1015.9 hPa 1.6 m/s 19.6 mm 19.2° 1016.0 hPa 1.5 m/s 13.5° 1015.3 hPa 1.8 m/s 19.6 mm
08:00 19.2° 1016.7 hPa 1.9 m/s 19.7 mm 19.6° 1016.7 hPa 1.9 m/s 15.0° 1016.4 hPa 1.8 m/s 19.7 mm
11:00 22.2° 1016.3 hPa 1.4 m/s 20.0 mm 22.6° 1016.4 hPa 1.4 m/s 16.9° 1016.1 hPa 1.1 m/s 20.0 mm
14:00 25.7° 1016.0 hPa 0.9 m/s 20.0 mm 25.7° 1016.0 hPa 0.9 m/s 25.1° 1015.5 hPa 0.3 m/s 20.0 mm
17:00 24.6° 1016.3 hPa 1.2 m/s 20.5 mm 24.6° 1016.5 hPa 1.1 m/s 24.5° 1015.0 hPa 1.8 m/s 20.5 mm
20:00 23.4° 1016.8 hPa 1.3 m/s 21.1 mm 23.6° 1016.9 hPa 1.3 m/s 20.8° 1015.9 hPa 1.7 m/s 21.1 mm
23:00 20.8° 1017.6 hPa 1.3 m/s 21.1 mm 21.1° 1017.6 hPa 1.3 m/s 17.4° 1017.6 hPa 1.2 m/s 21.1 mm
 04:58     21:03    Daglengte: 16:05 Maandag 24 Jun
02:00 18.4° 1018.3 hPa 1.3 m/s 21.1 mm 18.7° 1018.3 hPa 1.3 m/s 15.4° 1018.0 hPa 1.3 m/s 21.1 mm
08:00 20.3° 1019.2 hPa 1.6 m/s 21.1 mm 20.5° 1019.3 hPa 1.6 m/s 18.0° 1018.5 hPa 1.7 m/s 21.1 mm
14:00 27.2° 1017.9 hPa 2.6 m/s 21.1 mm 27.3° 1018.0 hPa 2.5 m/s 26.3° 1016.4 hPa 4.1 m/s 21.1 mm
20:00 24.8° 1016.6 hPa 3.0 m/s 21.1 mm 24.9° 1016.8 hPa 2.8 m/s 23.9° 1014.9 hPa 4.8 m/s 21.1 mm
 04:59     21:03    Daglengte: 16:04 Dinsdag 25 Jun
02:00 20.4° 1016.0 hPa 2.6 m/s 21.1 mm 20.6° 1016.1 hPa 2.6 m/s 18.0° 1014.6 hPa 2.3 m/s 21.1 mm
08:00 22.7° 1014.8 hPa 2.9 m/s 21.1 mm 22.8° 1015.1 hPa 2.9 m/s 21.6° 1011.4 hPa 3.1 m/s 21.1 mm
14:00 31.4° 1014.2 hPa 2.3 m/s 21.1 mm 31.3° 1014.6 hPa 2.3 m/s 32.3° 1009.9 hPa 1.8 m/s 21.1 mm
20:00 29.0° 1013.1 hPa 1.4 m/s 21.1 mm 29.1° 1013.6 hPa 1.4 m/s 27.6° 1007.3 hPa 1.4 m/s 21.1 mm
 04:59     21:03    Daglengte: 16:04 Woensdag 26 Jun
02:00 23.3° 1012.7 hPa 1.8 m/s 21.1 mm 23.4° 1013.2 hPa 1.8 m/s 21.8° 1007.6 hPa 1.7 m/s 21.1 mm
08:00 25.5° 1012.2 hPa 1.7 m/s 21.1 mm 25.8° 1012.5 hPa 1.4 m/s 21.8° 1009.0 hPa 4.5 m/s 21.1 mm
14:00 33.9° 1011.2 hPa 3.5 m/s 21.1 mm 34.2° 1011.7 hPa 3.4 m/s 30.0° 1005.3 hPa 4.4 m/s 21.1 mm
20:00 22.6° 1015.9 hPa 1.2 m/s 1.1 mm
 05:00     21:03    Daglengte: 16:03 Donderdag 27 Jun
02:00 16.9° 1016.7 hPa 1.2 m/s 0.5 mm
08:00 19.1° 1016.2 hPa 1.3 m/s 0.9 mm
14:00 25.2° 1014.6 hPa 0.9 m/s 0.9 mm
20:00 21.9° 1013.7 hPa 0.9 m/s 2.3 mm
 05:00     21:03    Daglengte: 16:03 Vrijdag 28 Jun
02:00 15.7° 1014.7 hPa 1.8 m/s 1.2 mm
08:00 18.5° 1014.3 hPa 1.6 m/s 1.0 mm
14:00 24.7° 1013.0 hPa 1.3 m/s 1.0 mm
20:00 21.3° 1012.8 hPa 1.1 m/s 1.8 mm
 05:01     21:03    Daglengte: 16:02 Zaterdag 29 Jun
02:00 15.3° 1014.1 hPa 2.0 m/s 1.1 mm
08:00 17.8° 1014.5 hPa 1.9 m/s 0.7 mm
14:00 24.4° 1013.6 hPa 2.3 m/s 1.0 mm
20:00 20.7° 1013.9 hPa 1.7 m/s 1.1 mm
 05:01     21:02    Daglengte: 16:01 Zondag 30 Jun
02:00 14.8° 1015.8 hPa 2.0 m/s 1.1 mm
08:00 17.5° 1016.1 hPa 2.1 m/s 0.4 mm
14:00 23.5° 1015.2 hPa 1.7 m/s 1.8 mm
20:00 21.0° 1015.0 hPa 0.9 m/s 0.9 mm
 05:02     21:02    Daglengte: 16:00 Maandag 01 Jul
02:00 14.8° 1016.1 hPa 1.0 m/s 0.8 mm
08:00 18.2° 1016.0 hPa 0.7 m/s 0.5 mm
14:00 24.4° 1015.2 hPa 0.3 m/s 1.4 mm
20:00 21.2° 1015.2 hPa 0.5 m/s 0.7 mm
FMI Hirlam - 7.5 km EWN WRFDA - 12 km DWD ICON - 7 km GFS - 25 km Basiskaart






























































Updatetijd (Europe/Amsterdam) Resolutie Lengte Stap
FMI Hirlam 01:15, 07:15, 13:15, 19:15 7.5 km 49h 1h
EWN WRFDA 22:15, 04:15, 10:15, 16:15 12 km 73h 1h
DWD ICON 23:45, 05:45, 11:45, 17:45 7 km 75h 1h
GFS 20:30, 02:30, 08:30, 14:30 25 km 237h 3h
30+ mm
25-30 mm
20-25 mm
15-20 mm
10-15 mm
6-10 mm
4-6 mm
2-4 mm
1-2 mm
0.5-1 mm
0.2-0.5 mm
0.1-0.2 mm
30+ mm
25-30 mm
20-25 mm
15-20 mm
10-15 mm
6-10 mm
4-6 mm
2-4 mm
1-2 mm
0.5-1 mm
0.2-0.5 mm
0.1-0.2 mm
Sneeuwval
Natte sneeuw
Hagel
Vorst
30+ mm
25-30 mm
20-25 mm
15-20 mm
10-15 mm
6-10 mm
4-6 mm
2-4 mm
1-2 mm
0.5-1 mm
0.2-0.5 mm
0.1-0.2 mm
Sneeuwval
Natte sneeuw
Hagel
Vorst
Onweer
50 mm
40 mm
30 mm
26 mm
22 mm
18 mm
14 mm
10 mm
9 mm
8 mm
7 mm
6 mm
5 mm
4.5 mm
4 mm
3.5 mm
3 mm
2.5 mm
2 mm
1.5 mm
1 mm
0.8 mm
0.6 mm
0.4 mm
0.2 mm
0.05 mm
35°
30°
25°
20°
15°
10°
-5°
-10°
-15°
-20°
-25°
-30°
-35°
33> m/s
29 m/s
25 m/s
21 m/s
17 m/s
14 m/s
11 m/s
8 m/s
5 m/s
3 m/s
0 m/s
2600 J/kg
2400 J/kg
2200 J/kg
2000 J/kg
1800 J/kg
1600 J/kg
1400 J/kg
1200 J/kg
1000 J/kg
800 J/kg
600 J/kg
400 J/kg
200 J/kg
70 dBZ
65 dBZ
60 dBZ
55 dBZ
50 dBZ
45 dBZ
40 dBZ
35 dBZ
30 dBZ
25 dBZ
20 dBZ
15 dBZ
10 dBZ
5 dBZ
-1 K
-2 K
-3 K
-4 K
-5 K
-6 K
-7 K
-8 K
-9 K
950 m²/s²
900 m²/s²
850 m²/s²
800 m²/s²
750 m²/s²
700 m²/s²
650 m²/s²
600 m²/s²
550 m²/s²
500 m²/s²
450 m²/s²
400 m²/s²
350 m²/s²
300 m²/s²
250 m²/s²
200 m²/s²
150 m²/s²
100 m²/s²
46 m/s
44 m/s
42 m/s
40 m/s
38 m/s
36 m/s
34 m/s
32 m/s
30 m/s
28 m/s
26 m/s
24 m/s
22 m/s
20 m/s
16 m/s
12 m/s
8 m/s
4 m/s
30 m/s
28 m/s
26 m/s
24 m/s
22 m/s
20 m/s
18 m/s
16 m/s
14 m/s
12 m/s
10 m/s
8 m/s
6 m/s
4 m/s
2 m/s
3.0
2.8
2.6
2.4
2.2
2.0
1.8
1.6
1.4
1.2
1.0
0.8
0.6
0.4
0.2
15
14
13
12
11
10
9
8
7
6
5
4
3
2
1
90%
80%
70%
60%
50%
40%
30%
20%
10%
42
40
38
36
34
32
30
28
26
24
22
20
18
16
14
12
90+ cm
80-90 cm
70-80 cm
60-70 cm
50-60 cm
40-50 cm
30-40 cm
20-30 cm
10-20 cm
1-10 cm
Sneeuwval
Natte sneeuw
Regen
>120 mm
115 mm
110 mm
105 mm
100 mm
95 mm
90 mm
85 mm
80 mm
75 mm
70 mm
65 mm
60 mm
55 mm
50 mm
45 mm
45 mm
40 mm
35 mm
30 mm
25 mm
20 mm
15 mm
10 mm
5 mm
0.1 mm
960 hPa
880 hPa
800 hPa
720 hPa
640 hPa
560 hPa
584 gpdm
568 gpdm
552 gpdm
536 gpdm
520 gpdm
504 gpdm
488 gpdm
Extreem zwaar Noodweer Kans op onweer
15% 15% 5% 50% 15%

Dag




Kaart






35°
30°
25°
20°
15°
10°
-5°
-10°
-15°
-20°
-25°
-30°
-35°
33> m/s
29 m/s
25 m/s
21 m/s
17 m/s
14 m/s
11 m/s
8 m/s
5 m/s
3 m/s
0 m/s
Extreem zwaar Noodweer Kans op onweer
15% 15% 5% 50% 15%
>120 mm
115 mm
110 mm
105 mm
100 mm